<?xml version='1.0' encoding='UTF-8'?>
<gpx xmlns="http://www.topografix.com/GPX/1/1" creator="www.balnam.be" version="1.1" xmlns:xsi="http://www.w3.org/2001/XMLSchema-instance" xsi:schemaLocation="http://www.topografix.com/GPX/1/1 http://www.topografix.com/GPX/1/1/gpx.xsd">
<trk>
<name>xvsmh1</name>
<cmt>v</cmt>
<desc>Morhet Chemin n°1 Chemin Devant-le-bois</desc>
<link href="https://chemins.be/morhet/chemin/1"/><trkseg>
<trkpt lat="49.932744" lon="5.559758"><time>2026-05-02T16:12:06Z</time></trkpt>
<trkpt lat="49.933545" lon="5.558749"><time>2026-05-02T16:22:06Z</time></trkpt>
<trkpt lat="49.934277" lon="5.557097"><time>2026-05-02T16:32:06Z</time></trkpt>
<trkpt lat="49.936556" lon="5.551089"><time>2026-05-02T16:42:06Z</time></trkpt>
<trkpt lat="49.940324" lon="5.541595"><time>2026-05-02T16:52:06Z</time></trkpt>
<trkpt lat="49.943633" lon="5.533257"><time>2026-05-02T17:02:06Z</time></trkpt>
<trkpt lat="49.944978" lon="5.529844"><time>2026-05-02T17:12:06Z</time></trkpt>
</trkseg>
</trk>
<trk>
<name>xvsmh10</name>
<cmt>v</cmt>
<desc>Morhet Chemin n°10 </desc>
<link href="https://chemins.be/morhet/chemin/10"/><trkseg>
<trkpt lat="49.933995" lon="5.584409"><time>2026-05-02T16:12:06Z</time></trkpt>
<trkpt lat="49.937310" lon="5.586526"><time>2026-05-02T16:22:06Z</time></trkpt>
<trkpt lat="49.938654" lon="5.586212"><time>2026-05-02T16:32:06Z</time></trkpt>
<trkpt lat="49.940001" lon="5.587758"><time>2026-05-02T16:42:06Z</time></trkpt>
</trkseg></trk>
<trk>
<name>xvsmh10</name>
<cmt>q</cmt>
<desc>Morhet Chemin n°10 </desc>
<link href="https://chemins.be/morhet/chemin/10"/><trkseg>
<trkpt lat="49.940001" lon="5.587758"><time>2026-05-02T16:42:06Z</time></trkpt>
<trkpt lat="49.941529" lon="5.587808"><time>2026-05-02T16:52:06Z</time></trkpt>
<trkpt lat="49.942505" lon="5.587458"><time>2026-05-02T17:02:06Z</time></trkpt>
</trkseg></trk>
<trk>
<name>xvsmh10</name>
<cmt>v</cmt>
<desc>Morhet Chemin n°10 </desc>
<link href="https://chemins.be/morhet/chemin/10"/><trkseg>
<trkpt lat="49.942505" lon="5.587458"><time>2026-05-02T17:02:06Z</time></trkpt>
<trkpt lat="49.944484" lon="5.586864"><time>2026-05-02T17:12:06Z</time></trkpt>
<trkpt lat="49.949073" lon="5.587015"><time>2026-05-02T17:22:06Z</time></trkpt>
<trkpt lat="49.951936" lon="5.587186"><time>2026-05-02T17:32:06Z</time></trkpt>
<trkpt lat="49.954071" lon="5.586686"><time>2026-05-02T17:42:06Z</time></trkpt>
<trkpt lat="49.955415" lon="5.587229"><time>2026-05-02T17:52:06Z</time></trkpt>
</trkseg>
</trk>
<trk>
<name>xvsmh11</name>
<cmt>v</cmt>
<desc>Morhet Chemin n°11 </desc>
<link href="https://chemins.be/morhet/chemin/11"/><trkseg>
<trkpt lat="49.967817" lon="5.579928"><time>2026-05-02T16:12:06Z</time></trkpt>
<trkpt lat="49.969426" lon="5.583707"><time>2026-05-02T16:22:06Z</time></trkpt>
<trkpt lat="49.971240" lon="5.587968"><time>2026-05-02T16:32:06Z</time></trkpt>
<trkpt lat="49.971277" lon="5.589083"><time>2026-05-02T16:42:06Z</time></trkpt>
<trkpt lat="49.971673" lon="5.590843"><time>2026-05-02T16:52:06Z</time></trkpt>
</trkseg>
</trk>
<trk>
<name>xvsmh14</name>
<cmt>v</cmt>
<desc>Morhet Chemin n°14 </desc>
<link href="https://chemins.be/morhet/chemin/14"/><trkseg>
<trkpt lat="49.962147" lon="5.586389"><time>2026-05-02T16:12:06Z</time></trkpt>
<trkpt lat="49.962736" lon="5.587755"><time>2026-05-02T16:22:06Z</time></trkpt>
<trkpt lat="49.962822" lon="5.588386"><time>2026-05-02T16:32:06Z</time></trkpt>
</trkseg></trk>
<trk>
<name>xvsmh14</name>
<cmt>q</cmt>
<desc>Morhet Chemin n°14 </desc>
<link href="https://chemins.be/morhet/chemin/14"/><trkseg>
<trkpt lat="49.962822" lon="5.588386"><time>2026-05-02T16:32:06Z</time></trkpt>
<trkpt lat="49.963283" lon="5.590015"><time>2026-05-02T16:42:06Z</time></trkpt>
</trkseg>
</trk>
<trk>
<name>xvsmh15</name>
<cmt>q</cmt>
<desc>Morhet Chemin n°15 </desc>
<link href="https://chemins.be/morhet/chemin/15"/><trkseg>
<trkpt lat="49.964566" lon="5.586200"><time>2026-05-02T16:12:06Z</time></trkpt>
<trkpt lat="49.964533" lon="5.586618"><time>2026-05-02T16:22:06Z</time></trkpt>
<trkpt lat="49.964681" lon="5.587548"><time>2026-05-02T16:32:06Z</time></trkpt>
<trkpt lat="49.964368" lon="5.587741"><time>2026-05-02T16:42:06Z</time></trkpt>
<trkpt lat="49.965156" lon="5.589851"><time>2026-05-02T16:52:06Z</time></trkpt>
<trkpt lat="49.964843" lon="5.590108"><time>2026-05-02T17:02:06Z</time></trkpt>
<trkpt lat="49.966656" lon="5.593649"><time>2026-05-02T17:12:06Z</time></trkpt>
<trkpt lat="49.966771" lon="5.594943"><time>2026-05-02T17:22:06Z</time></trkpt>
<trkpt lat="49.968450" lon="5.598062"><time>2026-05-02T17:32:06Z</time></trkpt>
</trkseg>
</trk>
<trk>
<name>xvsmh17</name>
<cmt>v</cmt>
<desc>Morhet Chemin n°17 </desc>
<link href="https://chemins.be/morhet/chemin/17"/><trkseg>
<trkpt lat="49.963031" lon="5.583893"><time>2026-05-02T16:12:06Z</time></trkpt>
<trkpt lat="49.962831" lon="5.584466"><time>2026-05-02T16:22:06Z</time></trkpt>
<trkpt lat="49.962888" lon="5.584533"><time>2026-05-02T16:32:06Z</time></trkpt>
</trkseg></trk>
<trk>
<name>xvsmh17</name>
<cmt>q</cmt>
<desc>Morhet Chemin n°17 </desc>
<link href="https://chemins.be/morhet/chemin/17"/><trkseg>
<trkpt lat="49.962888" lon="5.584533"><time>2026-05-02T16:32:06Z</time></trkpt>
<trkpt lat="49.962817" lon="5.584970"><time>2026-05-02T16:42:06Z</time></trkpt>
</trkseg>
</trk>
<trk>
<name>xvsmh18</name>
<cmt>v</cmt>
<desc>Morhet Chemin n°18 </desc>
<link href="https://chemins.be/morhet/chemin/18"/><trkseg>
<trkpt lat="49.963441" lon="5.584183"><time>2026-05-02T16:12:06Z</time></trkpt>
<trkpt lat="49.963622" lon="5.583639"><time>2026-05-02T16:22:06Z</time></trkpt>
<trkpt lat="49.963300" lon="5.583378"><time>2026-05-02T16:32:06Z</time></trkpt>
</trkseg>
</trk>
<trk>
<name>xvsmh18bis</name>
<cmt>q</cmt>
<desc>Morhet Chemin n°18bis </desc>
<link href="https://chemins.be/morhet/chemin/18bis"/><trkseg>
<trkpt lat="49.963632" lon="5.583654"><time>2026-05-02T16:12:06Z</time></trkpt>
<trkpt lat="49.963984" lon="5.583976"><time>2026-05-02T16:22:06Z</time></trkpt>
</trkseg>
</trk>
<trk>
<name>xvsmh19</name>
<cmt>v</cmt>
<desc>Morhet Chemin n°19 Rue Saint-Antoine</desc>
<link href="https://chemins.be/morhet/chemin/19"/><trkseg>
<trkpt lat="49.952522" lon="5.568098"><time>2026-05-02T16:12:06Z</time></trkpt>
<trkpt lat="49.954188" lon="5.567583"><time>2026-05-02T16:22:06Z</time></trkpt>
<trkpt lat="49.955771" lon="5.567740"><time>2026-05-02T16:32:06Z</time></trkpt>
<trkpt lat="49.957520" lon="5.567197"><time>2026-05-02T16:42:06Z</time></trkpt>
<trkpt lat="49.958431" lon="5.566725"><time>2026-05-02T16:52:06Z</time></trkpt>
<trkpt lat="49.959140" lon="5.566796"><time>2026-05-02T17:02:06Z</time></trkpt>
</trkseg>
</trk>
<trk>
<name>xvsmh2</name>
<cmt>v</cmt>
<desc>Morhet Chemin n°2 </desc>
<link href="https://chemins.be/morhet/chemin/2"/><trkseg>
<trkpt lat="49.939881" lon="5.524184"><time>2026-05-02T16:12:06Z</time></trkpt>
<trkpt lat="49.941222" lon="5.525662"><time>2026-05-02T16:22:06Z</time></trkpt>
<trkpt lat="49.942742" lon="5.527042"><time>2026-05-02T16:32:06Z</time></trkpt>
<trkpt lat="49.944604" lon="5.529181"><time>2026-05-02T16:42:06Z</time></trkpt>
</trkseg>
</trk>
<trk>
<name>xvsmh20</name>
<cmt>v</cmt>
<desc>Morhet Chemin n°20 </desc>
<link href="https://chemins.be/morhet/chemin/20"/><trkseg>
<trkpt lat="49.956869" lon="5.564455"><time>2026-05-02T16:12:06Z</time></trkpt>
<trkpt lat="49.955334" lon="5.562007"><time>2026-05-02T16:22:06Z</time></trkpt>
<trkpt lat="49.953420" lon="5.557916"><time>2026-05-02T16:32:06Z</time></trkpt>
<trkpt lat="49.952481" lon="5.553424"><time>2026-05-02T16:42:06Z</time></trkpt>
</trkseg>
</trk>
<trk>
<name>xvsmh21</name>
<cmt>v</cmt>
<desc>Morhet Chemin n°21 </desc>
<link href="https://chemins.be/morhet/chemin/21"/><trkseg>
<trkpt lat="49.939386" lon="5.524208"><time>2026-05-02T16:12:06Z</time></trkpt>
<trkpt lat="49.939428" lon="5.526171"><time>2026-05-02T16:22:06Z</time></trkpt>
<trkpt lat="49.940257" lon="5.529964"><time>2026-05-02T16:32:06Z</time></trkpt>
<trkpt lat="49.943572" lon="5.533268"><time>2026-05-02T16:42:06Z</time></trkpt>
<trkpt lat="49.945063" lon="5.534856"><time>2026-05-02T16:52:06Z</time></trkpt>
<trkpt lat="49.946844" lon="5.540081"><time>2026-05-02T17:02:06Z</time></trkpt>
</trkseg>
</trk>
<trk>
<name>xvsmh22</name>
<cmt>r</cmt>
<desc>Morhet Chemin n°22 Rue du Boret</desc>
<link href="https://chemins.be/morhet/chemin/22"/><trkseg>
<trkpt lat="49.948400" lon="5.567018"><time>2026-05-02T16:12:06Z</time></trkpt>
<trkpt lat="49.948639" lon="5.565974"><time>2026-05-02T16:22:06Z</time></trkpt>
<trkpt lat="49.948695" lon="5.565129"><time>2026-05-02T16:32:06Z</time></trkpt>
<trkpt lat="49.948170" lon="5.564872"><time>2026-05-02T16:42:06Z</time></trkpt>
<trkpt lat="49.948419" lon="5.563155"><time>2026-05-02T16:52:06Z</time></trkpt>
<trkpt lat="49.948271" lon="5.560180"><time>2026-05-02T17:02:06Z</time></trkpt>
</trkseg></trk>
<trk>
<name>xvsmh22</name>
<cmt>v</cmt>
<desc>Morhet Chemin n°22 Rue du Boret</desc>
<link href="https://chemins.be/morhet/chemin/22"/><trkseg>
<trkpt lat="49.948271" lon="5.560180"><time>2026-05-02T17:02:06Z</time></trkpt>
<trkpt lat="49.949036" lon="5.556859"><time>2026-05-02T17:12:06Z</time></trkpt>
<trkpt lat="49.949901" lon="5.555443"><time>2026-05-02T17:22:06Z</time></trkpt>
<trkpt lat="49.951512" lon="5.553920"><time>2026-05-02T17:32:06Z</time></trkpt>
<trkpt lat="49.952548" lon="5.553524"><time>2026-05-02T17:42:06Z</time></trkpt>
<trkpt lat="49.953616" lon="5.553009"><time>2026-05-02T17:52:06Z</time></trkpt>
<trkpt lat="49.958968" lon="5.545304"><time>2026-05-02T18:02:06Z</time></trkpt>
<trkpt lat="49.959672" lon="5.544713"><time>2026-05-02T18:12:06Z</time></trkpt>
</trkseg>
</trk>
<trk>
<name>xvsmh23</name>
<cmt>v</cmt>
<desc>Morhet Chemin n°23 </desc>
<link href="https://chemins.be/morhet/chemin/23"/><trkseg>
<trkpt lat="49.950777" lon="5.566463"><time>2026-05-02T16:12:06Z</time></trkpt>
<trkpt lat="49.952109" lon="5.566112"><time>2026-05-02T16:22:06Z</time></trkpt>
<trkpt lat="49.952404" lon="5.565855"><time>2026-05-02T16:32:06Z</time></trkpt>
</trkseg>
</trk>
<trk>
<name>xvsmh24</name>
<cmt>v</cmt>
<desc>Morhet Sentier n°24 </desc>
<link href="https://chemins.be/morhet/sentier/24"/><trkseg>
<trkpt lat="49.961353" lon="5.577879"><time>2026-05-02T16:12:06Z</time></trkpt>
<trkpt lat="49.959126" lon="5.576863"><time>2026-05-02T16:22:06Z</time></trkpt>
<trkpt lat="49.957965" lon="5.575467"><time>2026-05-02T16:32:06Z</time></trkpt>
</trkseg></trk>
<trk>
<name>xvsmh24</name>
<cmt>q</cmt>
<desc>Morhet Sentier n°24 </desc>
<link href="https://chemins.be/morhet/sentier/24"/><trkseg>
<trkpt lat="49.957965" lon="5.575467"><time>2026-05-02T16:32:06Z</time></trkpt>
<trkpt lat="49.956521" lon="5.573730"><time>2026-05-02T16:42:06Z</time></trkpt>
<trkpt lat="49.954349" lon="5.572157"><time>2026-05-02T16:52:06Z</time></trkpt>
<trkpt lat="49.953355" lon="5.572100"><time>2026-05-02T17:02:06Z</time></trkpt>
<trkpt lat="49.952232" lon="5.570240"><time>2026-05-02T17:12:06Z</time></trkpt>
<trkpt lat="49.951330" lon="5.568051"><time>2026-05-02T17:22:06Z</time></trkpt>
</trkseg>
</trk>
<trk>
<name>xvsmh25</name>
<cmt>q</cmt>
<desc>Morhet Chemin n°25 </desc>
<link href="https://chemins.be/morhet/chemin/25"/><trkseg>
<trkpt lat="49.948900" lon="5.570669"><time>2026-05-02T16:12:06Z</time></trkpt>
<trkpt lat="49.949379" lon="5.570898"><time>2026-05-02T16:22:06Z</time></trkpt>
<trkpt lat="49.951717" lon="5.575247"><time>2026-05-02T16:32:06Z</time></trkpt>
<trkpt lat="49.952886" lon="5.576906"><time>2026-05-02T16:42:06Z</time></trkpt>
<trkpt lat="49.954524" lon="5.578837"><time>2026-05-02T16:52:06Z</time></trkpt>
<trkpt lat="49.957718" lon="5.580010"><time>2026-05-02T17:02:06Z</time></trkpt>
<trkpt lat="49.959154" lon="5.579896"><time>2026-05-02T17:12:06Z</time></trkpt>
<trkpt lat="49.960865" lon="5.581126"><time>2026-05-02T17:22:06Z</time></trkpt>
<trkpt lat="49.961850" lon="5.581269"><time>2026-05-02T17:32:06Z</time></trkpt>
</trkseg>
</trk>
<trk>
<name>xvsmh26</name>
<cmt>v</cmt>
<desc>Morhet Chemin n°26 </desc>
<link href="https://chemins.be/morhet/chemin/26"/><trkseg>
<trkpt lat="49.963217" lon="5.543426"><time>2026-05-02T16:12:06Z</time></trkpt>
<trkpt lat="49.963224" lon="5.543426"><time>2026-05-02T16:22:06Z</time></trkpt>
<trkpt lat="49.965832" lon="5.548557"><time>2026-05-02T16:32:06Z</time></trkpt>
<trkpt lat="49.966343" lon="5.549201"><time>2026-05-02T16:42:06Z</time></trkpt>
</trkseg>
</trk>
<trk>
<name>xvsmh28</name>
<cmt>v</cmt>
<desc>Morhet Chemin n°28 </desc>
<link href="https://chemins.be/morhet/chemin/28"/><trkseg>
<trkpt lat="49.947027" lon="5.568513"><time>2026-05-02T16:12:06Z</time></trkpt>
<trkpt lat="49.945950" lon="5.570158"><time>2026-05-02T16:22:06Z</time></trkpt>
<trkpt lat="49.943632" lon="5.572353"><time>2026-05-02T16:32:06Z</time></trkpt>
<trkpt lat="49.939659" lon="5.574897"><time>2026-05-02T16:42:06Z</time></trkpt>
</trkseg></trk>
<trk>
<name>xvsmh28</name>
<cmt>q</cmt>
<desc>Morhet Chemin n°28 </desc>
<link href="https://chemins.be/morhet/chemin/28"/><trkseg>
<trkpt lat="49.939659" lon="5.574897"><time>2026-05-02T16:42:06Z</time></trkpt>
<trkpt lat="49.939181" lon="5.575347"><time>2026-05-02T16:52:06Z</time></trkpt>
</trkseg>
</trk>
<trk>
<name>xvsmh29</name>
<cmt>v</cmt>
<desc>Morhet Chemin n°29 </desc>
<link href="https://chemins.be/morhet/chemin/29"/><trkseg>
<trkpt lat="49.946004" lon="5.570101"><time>2026-05-02T16:12:06Z</time></trkpt>
<trkpt lat="49.945901" lon="5.571407"><time>2026-05-02T16:22:06Z</time></trkpt>
<trkpt lat="49.945116" lon="5.572862"><time>2026-05-02T16:32:06Z</time></trkpt>
<trkpt lat="49.944223" lon="5.573631"><time>2026-05-02T16:42:06Z</time></trkpt>
<trkpt lat="49.942003" lon="5.577015"><time>2026-05-02T16:52:06Z</time></trkpt>
<trkpt lat="49.941778" lon="5.578328"><time>2026-05-02T17:02:06Z</time></trkpt>
<trkpt lat="49.941690" lon="5.578839"><time>2026-05-02T17:12:06Z</time></trkpt>
<trkpt lat="49.941441" lon="5.582129"><time>2026-05-02T17:22:06Z</time></trkpt>
<trkpt lat="49.942488" lon="5.587557"><time>2026-05-02T17:32:06Z</time></trkpt>
<trkpt lat="49.942786" lon="5.588824"><time>2026-05-02T17:42:06Z</time></trkpt>
<trkpt lat="49.942537" lon="5.589096"><time>2026-05-02T17:52:06Z</time></trkpt>
<trkpt lat="49.942875" lon="5.591859"><time>2026-05-02T18:02:06Z</time></trkpt>
<trkpt lat="49.943400" lon="5.594133"><time>2026-05-02T18:12:06Z</time></trkpt>
</trkseg>
</trk>
<trk>
<name>xvsmh3</name>
<cmt>v</cmt>
<desc>Morhet Chemin n°3 Chemin du Roissart</desc>
<link href="https://chemins.be/morhet/chemin/3"/><trkseg>
<trkpt lat="49.962362" lon="5.561815"><time>2026-05-02T16:12:06Z</time></trkpt>
<trkpt lat="49.962140" lon="5.561078"><time>2026-05-02T16:22:06Z</time></trkpt>
<trkpt lat="49.961678" lon="5.559157"><time>2026-05-02T16:32:06Z</time></trkpt>
<trkpt lat="49.961705" lon="5.557977"><time>2026-05-02T16:42:06Z</time></trkpt>
<trkpt lat="49.961250" lon="5.556561"><time>2026-05-02T16:52:06Z</time></trkpt>
<trkpt lat="49.961519" lon="5.553964"><time>2026-05-02T17:02:06Z</time></trkpt>
<trkpt lat="49.961968" lon="5.547237"><time>2026-05-02T17:12:06Z</time></trkpt>
<trkpt lat="49.962361" lon="5.545671"><time>2026-05-02T17:22:06Z</time></trkpt>
<trkpt lat="49.962037" lon="5.543439"><time>2026-05-02T17:32:06Z</time></trkpt>
<trkpt lat="49.962164" lon="5.542460"><time>2026-05-02T17:42:06Z</time></trkpt>
</trkseg>
</trk>
<trk>
<name>xvsmh30</name>
<cmt>r</cmt>
<desc>Morhet Chemin n°30 </desc>
<link href="https://chemins.be/morhet/chemin/30"/><trkseg>
<trkpt lat="49.936265" lon="5.560514"><time>2026-05-02T16:12:06Z</time></trkpt>
<trkpt lat="49.936396" lon="5.562177"><time>2026-05-02T16:22:06Z</time></trkpt>
<trkpt lat="49.936286" lon="5.563851"><time>2026-05-02T16:32:06Z</time></trkpt>
<trkpt lat="49.936424" lon="5.566222"><time>2026-05-02T16:42:06Z</time></trkpt>
<trkpt lat="49.936652" lon="5.567188"><time>2026-05-02T16:52:06Z</time></trkpt>
<trkpt lat="49.937418" lon="5.570492"><time>2026-05-02T17:02:06Z</time></trkpt>
</trkseg></trk>
<trk>
<name>xvsmh30</name>
<cmt>v</cmt>
<desc>Morhet Chemin n°30 </desc>
<link href="https://chemins.be/morhet/chemin/30"/><trkseg>
<trkpt lat="49.937418" lon="5.570492"><time>2026-05-02T17:02:06Z</time></trkpt>
<trkpt lat="49.937833" lon="5.571823"><time>2026-05-02T17:12:06Z</time></trkpt>
<trkpt lat="49.938558" lon="5.574301"><time>2026-05-02T17:22:06Z</time></trkpt>
<trkpt lat="49.939149" lon="5.575372"><time>2026-05-02T17:32:06Z</time></trkpt>
<trkpt lat="49.940005" lon="5.576888"><time>2026-05-02T17:42:06Z</time></trkpt>
<trkpt lat="49.941441" lon="5.582296"><time>2026-05-02T17:52:06Z</time></trkpt>
</trkseg>
</trk>
<trk>
<name>xvsmh31</name>
<cmt>v</cmt>
<desc>Morhet Chemin n°31 </desc>
<link href="https://chemins.be/morhet/chemin/31"/><trkseg>
<trkpt lat="49.951151" lon="5.597910"><time>2026-05-02T16:12:06Z</time></trkpt>
<trkpt lat="49.949025" lon="5.597395"><time>2026-05-02T16:22:06Z</time></trkpt>
<trkpt lat="49.948522" lon="5.596866"><time>2026-05-02T16:32:06Z</time></trkpt>
<trkpt lat="49.947671" lon="5.595750"><time>2026-05-02T16:42:06Z</time></trkpt>
<trkpt lat="49.946254" lon="5.594734"><time>2026-05-02T16:52:06Z</time></trkpt>
<trkpt lat="49.945508" lon="5.593032"><time>2026-05-02T17:02:06Z</time></trkpt>
<trkpt lat="49.944173" lon="5.590857"><time>2026-05-02T17:12:06Z</time></trkpt>
<trkpt lat="49.942661" lon="5.588317"><time>2026-05-02T17:22:06Z</time></trkpt>
</trkseg>
</trk>
<trk>
<name>xvsmh32</name>
<cmt>v</cmt>
<desc>Morhet Chemin n°32 </desc>
<link href="https://chemins.be/morhet/chemin/32"/><trkseg>
<trkpt lat="49.951842" lon="5.549651"><time>2026-05-02T16:12:06Z</time></trkpt>
<trkpt lat="49.950254" lon="5.547312"><time>2026-05-02T16:22:06Z</time></trkpt>
<trkpt lat="49.948639" lon="5.546325"><time>2026-05-02T16:32:06Z</time></trkpt>
<trkpt lat="49.948197" lon="5.545038"><time>2026-05-02T16:42:06Z</time></trkpt>
<trkpt lat="49.947582" lon="5.541614"><time>2026-05-02T16:52:06Z</time></trkpt>
<trkpt lat="49.947396" lon="5.540575"><time>2026-05-02T17:02:06Z</time></trkpt>
<trkpt lat="49.947009" lon="5.540274"><time>2026-05-02T17:12:06Z</time></trkpt>
</trkseg>
</trk>
<trk>
<name>xvsmh34</name>
<cmt>v</cmt>
<desc>Morhet Chemin n°34 </desc>
<link href="https://chemins.be/morhet/chemin/34"/><trkseg>
<trkpt lat="49.936611" lon="5.567198"><time>2026-05-02T16:12:06Z</time></trkpt>
<trkpt lat="49.936286" lon="5.567638"><time>2026-05-02T16:22:06Z</time></trkpt>
<trkpt lat="49.933241" lon="5.570986"><time>2026-05-02T16:32:06Z</time></trkpt>
<trkpt lat="49.931604" lon="5.572595"><time>2026-05-02T16:42:06Z</time></trkpt>
<trkpt lat="49.931321" lon="5.573453"><time>2026-05-02T16:52:06Z</time></trkpt>
</trkseg>
</trk>
<trk>
<name>xvsmh35</name>
<cmt>r</cmt>
<desc>Morhet Chemin n°35 Impasse à Mairepré</desc>
<link href="https://chemins.be/morhet/chemin/35"/><trkseg>
<trkpt lat="49.922474" lon="5.573367"><time>2026-05-02T16:12:06Z</time></trkpt>
<trkpt lat="49.922451" lon="5.573798"><time>2026-05-02T16:22:06Z</time></trkpt>
<trkpt lat="49.922618" lon="5.574554"><time>2026-05-02T16:32:06Z</time></trkpt>
</trkseg></trk>
<trk>
<name>xvsmh35</name>
<cmt>v</cmt>
<desc>Morhet Chemin n°35 Impasse à Mairepré</desc>
<link href="https://chemins.be/morhet/chemin/35"/><trkseg>
<trkpt lat="49.922618" lon="5.574554"><time>2026-05-02T16:32:06Z</time></trkpt>
<trkpt lat="49.922889" lon="5.575395"><time>2026-05-02T16:42:06Z</time></trkpt>
</trkseg>
</trk>
<trk>
<name>xvsmh36</name>
<cmt>q</cmt>
<desc>Morhet Chemin n°36 </desc>
<link href="https://chemins.be/morhet/chemin/36"/><trkseg>
<trkpt lat="49.924807" lon="5.571032"><time>2026-05-02T16:12:06Z</time></trkpt>
<trkpt lat="49.924674" lon="5.568143"><time>2026-05-02T16:22:06Z</time></trkpt>
<trkpt lat="49.924982" lon="5.566640"><time>2026-05-02T16:32:06Z</time></trkpt>
<trkpt lat="49.924812" lon="5.564151"><time>2026-05-02T16:42:06Z</time></trkpt>
</trkseg>
</trk>
<trk>
<name>xvsmh38</name>
<cmt>v</cmt>
<desc>Morhet Chemin n°38 </desc>
<link href="https://chemins.be/morhet/chemin/38"/><trkseg>
<trkpt lat="49.920383" lon="5.574184"><time>2026-05-02T16:12:06Z</time></trkpt>
<trkpt lat="49.920070" lon="5.574241"><time>2026-05-02T16:22:06Z</time></trkpt>
<trkpt lat="49.919708" lon="5.574109"><time>2026-05-02T16:32:06Z</time></trkpt>
<trkpt lat="49.919368" lon="5.574252"><time>2026-05-02T16:42:06Z</time></trkpt>
<trkpt lat="49.918813" lon="5.573976"><time>2026-05-02T16:52:06Z</time></trkpt>
<trkpt lat="49.917042" lon="5.575267"><time>2026-05-02T17:02:06Z</time></trkpt>
</trkseg>
</trk>
<trk>
<name>xvsmh41</name>
<cmt>d</cmt>
<desc>Morhet Chemin n°41 </desc>
<link href="https://chemins.be/morhet/chemin/41"/><trkseg>
<trkpt lat="49.919921" lon="5.583506"><time>2026-05-02T16:12:06Z</time></trkpt>
<trkpt lat="49.919967" lon="5.584221"><time>2026-05-02T16:22:06Z</time></trkpt>
<trkpt lat="49.920571" lon="5.584386"><time>2026-05-02T16:32:06Z</time></trkpt>
</trkseg></trk>
<trk>
<name>xvsmh41</name>
<cmt>q</cmt>
<desc>Morhet Chemin n°41 </desc>
<link href="https://chemins.be/morhet/chemin/41"/><trkseg>
<trkpt lat="49.920571" lon="5.584386"><time>2026-05-02T16:32:06Z</time></trkpt>
<trkpt lat="49.920875" lon="5.585495"><time>2026-05-02T16:42:06Z</time></trkpt>
<trkpt lat="49.921777" lon="5.586424"><time>2026-05-02T16:52:06Z</time></trkpt>
<trkpt lat="49.922810" lon="5.586068"><time>2026-05-02T17:02:06Z</time></trkpt>
</trkseg>
</trk>
<trk>
<name>xvsmh44</name>
<cmt>v</cmt>
<desc>Morhet Chemin n°44 </desc>
<link href="https://chemins.be/morhet/chemin/44"/><trkseg>
<trkpt lat="49.948254" lon="5.559960"><time>2026-05-02T16:12:06Z</time></trkpt>
<trkpt lat="49.947744" lon="5.557707"><time>2026-05-02T16:22:06Z</time></trkpt>
<trkpt lat="49.946496" lon="5.554982"><time>2026-05-02T16:32:06Z</time></trkpt>
<trkpt lat="49.946156" lon="5.553258"><time>2026-05-02T16:42:06Z</time></trkpt>
<trkpt lat="49.946225" lon="5.552657"><time>2026-05-02T16:52:06Z</time></trkpt>
<trkpt lat="49.946471" lon="5.546744"><time>2026-05-02T17:02:06Z</time></trkpt>
<trkpt lat="49.946112" lon="5.545671"><time>2026-05-02T17:12:06Z</time></trkpt>
<trkpt lat="49.946968" lon="5.541176"><time>2026-05-02T17:22:06Z</time></trkpt>
<trkpt lat="49.946748" lon="5.539706"><time>2026-05-02T17:32:06Z</time></trkpt>
</trkseg>
</trk>
<trk>
<name>xvsmh46</name>
<cmt>d</cmt>
<desc>Morhet Chemin n°46 </desc>
<link href="https://chemins.be/morhet/chemin/46"/><trkseg>
<trkpt lat="49.929162" lon="5.572219"><time>2026-05-02T16:12:06Z</time></trkpt>
<trkpt lat="49.929145" lon="5.572811"><time>2026-05-02T16:22:06Z</time></trkpt>
</trkseg></trk>
<trk>
<name>xvsmh46</name>
<cmt>q</cmt>
<desc>Morhet Chemin n°46 </desc>
<link href="https://chemins.be/morhet/chemin/46"/><trkseg>
<trkpt lat="49.929145" lon="5.572811"><time>2026-05-02T16:22:06Z</time></trkpt>
<trkpt lat="49.928665" lon="5.574428"><time>2026-05-02T16:32:06Z</time></trkpt>
<trkpt lat="49.928757" lon="5.575772"><time>2026-05-02T16:42:06Z</time></trkpt>
<trkpt lat="49.928398" lon="5.577990"><time>2026-05-02T16:52:06Z</time></trkpt>
</trkseg>
</trk>
<trk>
<name>xvsmh47</name>
<cmt>q</cmt>
<desc>Morhet Chemin n°47 </desc>
<link href="https://chemins.be/morhet/chemin/47"/><trkseg>
<trkpt lat="49.928827" lon="5.584584"><time>2026-05-02T16:12:06Z</time></trkpt>
<trkpt lat="49.930378" lon="5.585629"><time>2026-05-02T16:22:06Z</time></trkpt>
<trkpt lat="49.932652" lon="5.586559"><time>2026-05-02T16:32:06Z</time></trkpt>
</trkseg></trk>
<trk>
<name>xvsmh47</name>
<cmt>v</cmt>
<desc>Morhet Chemin n°47 </desc>
<link href="https://chemins.be/morhet/chemin/47"/><trkseg>
<trkpt lat="49.932652" lon="5.586559"><time>2026-05-02T16:32:06Z</time></trkpt>
<trkpt lat="49.934638" lon="5.589048"><time>2026-05-02T16:42:06Z</time></trkpt>
<trkpt lat="49.936023" lon="5.589880"><time>2026-05-02T16:52:06Z</time></trkpt>
<trkpt lat="49.936669" lon="5.589887"><time>2026-05-02T17:02:06Z</time></trkpt>
<trkpt lat="49.936874" lon="5.590123"><time>2026-05-02T17:12:06Z</time></trkpt>
<trkpt lat="49.936941" lon="5.590735"><time>2026-05-02T17:22:06Z</time></trkpt>
<trkpt lat="49.937105" lon="5.591582"><time>2026-05-02T17:32:06Z</time></trkpt>
</trkseg>
</trk>
<trk>
<name>xvsmh48</name>
<cmt>q</cmt>
<desc>Morhet Chemin n°48 </desc>
<link href="https://chemins.be/morhet/chemin/48"/><trkseg>
<trkpt lat="49.918115" lon="5.592290"><time>2026-05-02T16:12:06Z</time></trkpt>
<trkpt lat="49.916341" lon="5.592583"><time>2026-05-02T16:22:06Z</time></trkpt>
<trkpt lat="49.915799" lon="5.592853"><time>2026-05-02T16:32:06Z</time></trkpt>
</trkseg>
</trk>
<trk>
<name>xvsmh49</name>
<cmt>q</cmt>
<desc>Morhet Sentier n°49 </desc>
<link href="https://chemins.be/morhet/sentier/49"/><trkseg>
<trkpt lat="49.935626" lon="5.578190"><time>2026-05-02T16:12:06Z</time></trkpt>
<trkpt lat="49.934678" lon="5.578805"><time>2026-05-02T16:22:06Z</time></trkpt>
<trkpt lat="49.932302" lon="5.578505"><time>2026-05-02T16:32:06Z</time></trkpt>
<trkpt lat="49.930820" lon="5.580050"><time>2026-05-02T16:42:06Z</time></trkpt>
<trkpt lat="49.929835" lon="5.580221"><time>2026-05-02T16:52:06Z</time></trkpt>
<trkpt lat="49.928527" lon="5.579978"><time>2026-05-02T17:02:06Z</time></trkpt>
<trkpt lat="49.928103" lon="5.580164"><time>2026-05-02T17:12:06Z</time></trkpt>
</trkseg>
</trk>
<trk>
<name>xvsmh50</name>
<cmt>v</cmt>
<desc>Morhet Chemin n°50 </desc>
<link href="https://chemins.be/morhet/chemin/50"/><trkseg>
<trkpt lat="49.915968" lon="5.591589"><time>2026-05-02T16:12:06Z</time></trkpt>
<trkpt lat="49.915646" lon="5.592955"><time>2026-05-02T16:22:06Z</time></trkpt>
</trkseg>
</trk>
<trk>
<name>xvsmh52</name>
<cmt>v</cmt>
<desc>Morhet Sentier n°52 </desc>
<link href="https://chemins.be/morhet/sentier/52"/><trkseg>
<trkpt lat="49.918443" lon="5.592706"><time>2026-05-02T16:12:06Z</time></trkpt>
<trkpt lat="49.919219" lon="5.594644"><time>2026-05-02T16:22:06Z</time></trkpt>
</trkseg>
</trk>
<trk>
<name>xvsmh53</name>
<cmt>v</cmt>
<desc>Morhet Chemin n°53 </desc>
<link href="https://chemins.be/morhet/chemin/53"/><trkseg>
<trkpt lat="49.910425" lon="5.581824"><time>2026-05-02T16:12:06Z</time></trkpt>
<trkpt lat="49.911364" lon="5.583640"><time>2026-05-02T16:22:06Z</time></trkpt>
<trkpt lat="49.911456" lon="5.585915"><time>2026-05-02T16:32:06Z</time></trkpt>
</trkseg>
</trk>
<trk>
<name>xvsmh54</name>
<cmt>v</cmt>
<desc>Morhet Sentier n°54 </desc>
<link href="https://chemins.be/morhet/sentier/54"/><trkseg>
<trkpt lat="49.936464" lon="5.523645"><time>2026-05-02T16:12:06Z</time></trkpt>
<trkpt lat="49.936326" lon="5.523536"><time>2026-05-02T16:22:06Z</time></trkpt>
<trkpt lat="49.934992" lon="5.523126"><time>2026-05-02T16:32:06Z</time></trkpt>
<trkpt lat="49.934611" lon="5.523325"><time>2026-05-02T16:42:06Z</time></trkpt>
<trkpt lat="49.934372" lon="5.523220"><time>2026-05-02T16:52:06Z</time></trkpt>
<trkpt lat="49.934136" lon="5.523281"><time>2026-05-02T17:02:06Z</time></trkpt>
<trkpt lat="49.933719" lon="5.523388"><time>2026-05-02T17:12:06Z</time></trkpt>
<trkpt lat="49.933475" lon="5.523553"><time>2026-05-02T17:22:06Z</time></trkpt>
<trkpt lat="49.932156" lon="5.525195"><time>2026-05-02T17:32:06Z</time></trkpt>
<trkpt lat="49.931238" lon="5.527448"><time>2026-05-02T17:42:06Z</time></trkpt>
</trkseg>
</trk>
<trk>
<name>xvsmh55</name>
<cmt>q</cmt>
<desc>Morhet Sentier n°55 </desc>
<link href="https://chemins.be/morhet/sentier/55"/><trkseg>
<trkpt lat="49.920308" lon="5.572341"><time>2026-05-02T16:12:06Z</time></trkpt>
<trkpt lat="49.918521" lon="5.572284"><time>2026-05-02T16:22:06Z</time></trkpt>
<trkpt lat="49.916675" lon="5.571690"><time>2026-05-02T16:32:06Z</time></trkpt>
</trkseg>
</trk>
<trk>
<name>xvsmh6</name>
<cmt>v</cmt>
<desc>Morhet Chemin n°6 </desc>
<link href="https://chemins.be/morhet/chemin/6"/><trkseg>
<trkpt lat="49.964293" lon="5.600671"><time>2026-05-02T16:12:06Z</time></trkpt>
<trkpt lat="49.966497" lon="5.599197"><time>2026-05-02T16:22:06Z</time></trkpt>
<trkpt lat="49.968783" lon="5.597910"><time>2026-05-02T16:32:06Z</time></trkpt>
<trkpt lat="49.970467" lon="5.595649"><time>2026-05-02T16:42:06Z</time></trkpt>
<trkpt lat="49.971277" lon="5.592245"><time>2026-05-02T16:52:06Z</time></trkpt>
<trkpt lat="49.971698" lon="5.590742"><time>2026-05-02T17:02:06Z</time></trkpt>
<trkpt lat="49.971930" lon="5.589913"><time>2026-05-02T17:12:06Z</time></trkpt>
<trkpt lat="49.972887" lon="5.588797"><time>2026-05-02T17:22:06Z</time></trkpt>
</trkseg>
</trk>
<trk>
<name>xvsmh7</name>
<cmt>v</cmt>
<desc>Morhet Chemin n°7 </desc>
<link href="https://chemins.be/morhet/chemin/7"/><trkseg>
<trkpt lat="49.958913" lon="5.589450"><time>2026-05-02T16:12:06Z</time></trkpt>
<trkpt lat="49.958326" lon="5.591832"><time>2026-05-02T16:22:06Z</time></trkpt>
<trkpt lat="49.957494" lon="5.595549"><time>2026-05-02T16:32:06Z</time></trkpt>
<trkpt lat="49.957349" lon="5.595818"><time>2026-05-02T16:42:06Z</time></trkpt>
</trkseg>
</trk>
<trk>
<name>xvsmh9</name>
<cmt>v</cmt>
<desc>Morhet Chemin n°9 </desc>
<link href="https://chemins.be/morhet/chemin/9"/><trkseg>
<trkpt lat="49.955484" lon="5.584704"><time>2026-05-02T16:12:06Z</time></trkpt>
<trkpt lat="49.951439" lon="5.582115"><time>2026-05-02T16:22:06Z</time></trkpt>
<trkpt lat="49.950608" lon="5.582017"><time>2026-05-02T16:32:06Z</time></trkpt>
<trkpt lat="49.949117" lon="5.582761"><time>2026-05-02T16:42:06Z</time></trkpt>
<trkpt lat="49.948309" lon="5.582938"><time>2026-05-02T16:52:06Z</time></trkpt>
<trkpt lat="49.941789" lon="5.578955"><time>2026-05-02T17:02:06Z</time></trkpt>
<trkpt lat="49.941366" lon="5.578169"><time>2026-05-02T17:12:06Z</time></trkpt>
<trkpt lat="49.940066" lon="5.576857"><time>2026-05-02T17:22:06Z</time></trkpt>
</trkseg></trk>
<trk>
<name>xvsmh9</name>
<cmt>d</cmt>
<desc>Morhet Chemin n°9 </desc>
<link href="https://chemins.be/morhet/chemin/9"/><trkseg>
<trkpt lat="49.940066" lon="5.576857"><time>2026-05-02T17:22:06Z</time></trkpt>
<trkpt lat="49.938631" lon="5.574464"><time>2026-05-02T17:32:06Z</time></trkpt>
</trkseg></trk>
<trk>
<name>xvsmh9</name>
<cmt>q</cmt>
<desc>Morhet Chemin n°9 </desc>
<link href="https://chemins.be/morhet/chemin/9"/><trkseg>
<trkpt lat="49.938631" lon="5.574464"><time>2026-05-02T17:32:06Z</time></trkpt>
<trkpt lat="49.932785" lon="5.572761"><time>2026-05-02T17:42:06Z</time></trkpt>
<trkpt lat="49.931362" lon="5.573405"><time>2026-05-02T17:52:06Z</time></trkpt>
</trkseg>
</trk>
<trk>
<name>xvsmhi1</name>
<cmt>r</cmt>
<desc>Morhet Chemin n°i1 </desc>
<link href="https://chemins.be/morhet/chemin/i1"/><trkseg>
<trkpt lat="49.937481" lon="5.570594"><time>2026-05-02T16:12:06Z</time></trkpt>
<trkpt lat="49.932578" lon="5.574692"><time>2026-05-02T16:22:06Z</time></trkpt>
</trkseg>
</trk>
<trk>
<name>xvsmhi2</name>
<cmt>r</cmt>
<desc>Morhet Chemin n°i2 </desc>
<link href="https://chemins.be/morhet/chemin/i2"/><trkseg>
<trkpt lat="49.935755" lon="5.577954"><time>2026-05-02T16:12:06Z</time></trkpt>
<trkpt lat="49.934691" lon="5.576302"><time>2026-05-02T16:22:06Z</time></trkpt>
<trkpt lat="49.932564" lon="5.574757"><time>2026-05-02T16:32:06Z</time></trkpt>
<trkpt lat="49.931418" lon="5.573426"><time>2026-05-02T16:42:06Z</time></trkpt>
</trkseg>
</trk>
<trk>
<name>xvsmhi3</name>
<cmt>v</cmt>
<desc>Morhet Chemin n°i3 </desc>
<link href="https://chemins.be/morhet/chemin/i3"/><trkseg>
<trkpt lat="49.939902" lon="5.587710"><time>2026-05-02T16:12:06Z</time></trkpt>
<trkpt lat="49.940942" lon="5.588354"><time>2026-05-02T16:22:06Z</time></trkpt>
<trkpt lat="49.942498" lon="5.589098"><time>2026-05-02T16:32:06Z</time></trkpt>
</trkseg>
</trk>
<trk>
<name>xvsmhi4</name>
<cmt>v</cmt>
<desc>Morhet Chemin n°i4 </desc>
<link href="https://chemins.be/morhet/chemin/i4"/><trkseg>
<trkpt lat="49.924452" lon="5.580682"><time>2026-05-02T16:12:06Z</time></trkpt>
<trkpt lat="49.924265" lon="5.579230"><time>2026-05-02T16:22:06Z</time></trkpt>
<trkpt lat="49.924242" lon="5.578296"><time>2026-05-02T16:32:06Z</time></trkpt>
</trkseg>
</trk>
<trk>
<name>xvsmhL163</name>
<cmt>v</cmt>
<desc>Morhet Chemin n°L163 pré-RAVeL L163</desc>
<link href="https://chemins.be/morhet/chemin/L163"/><trkseg>
<trkpt lat="49.935240" lon="5.523565"><time>2026-05-02T16:12:06Z</time></trkpt>
<trkpt lat="49.936676" lon="5.532752"><time>2026-05-02T16:22:06Z</time></trkpt>
<trkpt lat="49.936688" lon="5.550975"><time>2026-05-02T16:32:06Z</time></trkpt>
<trkpt lat="49.936666" lon="5.560471"><time>2026-05-02T16:42:06Z</time></trkpt>
<trkpt lat="49.936888" lon="5.564960"><time>2026-05-02T16:52:06Z</time></trkpt>
<trkpt lat="49.937267" lon="5.567960"><time>2026-05-02T17:02:06Z</time></trkpt>
<trkpt lat="49.937853" lon="5.569816"><time>2026-05-02T17:12:06Z</time></trkpt>
<trkpt lat="49.938841" lon="5.572445"><time>2026-05-02T17:22:06Z</time></trkpt>
<trkpt lat="49.939628" lon="5.574955"><time>2026-05-02T17:32:06Z</time></trkpt>
<trkpt lat="49.939817" lon="5.575713"><time>2026-05-02T17:42:06Z</time></trkpt>
<trkpt lat="49.939991" lon="5.577301"><time>2026-05-02T17:52:06Z</time></trkpt>
<trkpt lat="49.940362" lon="5.582489"><time>2026-05-02T18:02:06Z</time></trkpt>
<trkpt lat="49.941519" lon="5.586624"><time>2026-05-02T18:12:06Z</time></trkpt>
<trkpt lat="49.942623" lon="5.588977"><time>2026-05-02T18:22:06Z</time></trkpt>
<trkpt lat="49.943684" lon="5.591219"><time>2026-05-02T18:32:06Z</time></trkpt>
</trkseg>
</trk>
</gpx>